Find Starlink 32513

NORAD ID: 61964 Int'l Des: 2024-210 Owner: SPXS Country: US Constellation: starlink operational
LEOCIRCULAR

Current View

Loading 3D Globe...

About Starlink 32513

Starlink 32513 (NORAD 61964) is a starlink constellation satellite (v2 mini) launched Nov 14, 2024 by SPXS of US. It operates in LEO, CIRCULAR orbit with a mass of 730.00 kg.

Upcoming Passes

Passes for default location (London). Set your location on the main map for personalized predictions.

Altitude History

Loading altitude history...

Two-Line Element Set

1 61964U 24210F 26264.03933497 .00013029 00000-0 48200-3 0 9995
2 61964 43.0030 142.1038 0001219 290.7426 69.3295 15.27590729104950
Epoch: Sep 21, 2026 • Age: 17 hours

Current Status

Altitude 485.8 km
Apogee / Perigee N/A
Velocity 7.62 km/s
Sub-Earth Point -16.97°S, 152.99°W
Launch Date Nov 14, 2024
Age 1.8 years
Type internet

Technical Details

Classification Payload
Mass 730.00 kg
Dry Mass 700.00 kg
Length 0.30 m
Span 29.00 m
Shape ? Box + pan
Manufacturer SPXS
Bus Type Starlink V2M
Phase Status In Orbit
Owner/State SPXS/US

Most Searched